Skip Page Navigation
NASA JPL Caltech
NASA Logo - Jet Propulsion Laboratory + View the NASA Portal
+ Center for Near-Earth Object Studies
JPL Home Earth Solar System Stars & Galaxies Technology
JPL Solar System Dynamics
BODIES ORBITS EPHEMERIDES TOOLS PHYSICAL DATA DISCOVERY FAQ SITE MAP
JPL Small-Body Database Browser
Search: [ help ]  
390403 (2013 YU10)
Classification: Main-belt Asteroid          SPK-ID: 2390403
Ephemeris | Orbit Diagram | Orbital Elements | Mission Design | Physical Parameters | Discovery Circumstances | Close-Approach Data ]

[ hide orbit diagram ]

For accurate long-term ephemerides, please instead use our Horizons system.This orbit viewer was implemented using two-body methods, and hence should not be used for determining accurate long-term trajectories (over several years or decades) or planetary encounter circumstances.


Orbital Elements at Epoch 2459200.5 (2020-Dec-17.0) TDB
Reference: JPL 14 (heliocentric ecliptic J2000)
 Element Value Uncertainty (1-sigma)   Units 
e .1105676925348922 7.3483e-08  
a 2.989143687407783 3.5635e-08 au
q 2.658640967235866 2.1884e-07 au
i 13.46068386245824 7.7028e-06 deg
node 294.9818815423666 2.4862e-05 deg
peri 188.2301055921075 4.421e-05 deg
M 127.1800445315401 3.1507e-05 deg
tp 2458533.639357104522
(2019-Feb-19.13935710)
0.00016585 TDB
period 1887.637579674188
5.17
3.3755e-05
9.242e-08
d
yr
n .1907145756560626 3.4104e-09 deg/d
Q 3.319646407579701 3.9575e-08 au
  Orbit Determination Parameters
   # obs. used (total)      191  
   data-arc span      6792 days (18.60 yr)  
   first obs. used      2001-10-15  
   last obs. used      2020-05-20  
   planetary ephem.      DE441  
   SB-pert. ephem.      SB441-N16  
   condition code      0  
   norm. resid. RMS      .52563  
   source      ORB  
   producer      Otto Matic  
   solution date      2021-Apr-14 11:23:22  

Additional Information
 Earth MOID = 1.67511 au 
 Jupiter MOID = 1.78955 au 
 T_jup = 3.206 
[ show covariance matrix ]

Ephemeris | Orbit Diagram | Orbital Elements | Mission Design | Physical Parameters | Discovery Circumstances | Close-Approach Data ]

Physical Parameter Table
Parameter Symbol Value Units Sigma Reference Notes
absolute magnitude H 16.01   n/a MPCxxxxx  

390403 (2013 YU10)          Discovered 2007-Nov-13 by Mt. Lemmon Survey at Mount Lemmon
Reference: Last Updated: 2014-03-21

[ show close-approach data ]
Ephemeris | Orbit Diagram | Orbital Elements | Mission Design | Physical Parameters | Discovery Circumstances | Close-Approach Data ]
ABOUT SSD CREDITS/AWARDS PRIVACY/COPYRIGHT GLOSSARY LINKS
FirstGov 2021-May-14 11:50 UT
(server date/time)  
NASA Home Page
Site Manager:   Ryan S. Park
Webmaster  Alan B. Chamberlin